Eureka, NV

2:45 AM PDT on September 24, 2017 (GMT -0700)
Eureka

Weather History for KP68 - July, 2013

Change the Weather History Date:

Sunday, July 7, 2013

  Actual Average Record
Temperature  
Mean Temperature 74 °F 68 °F  
Max Temperature 87 °F 88 °F 97 °F (1989)
Min Temperature 60 °F 48 °F 36 °F (1969)
Degree Days  
Heating Degree Days 0 1  
Month to date heating degree days 0 7  
Since 1 June heating degree days 80 167  
Since 1 July heating degree days 0 7  
Cooling Degree Days 9 4  
Month to date cooling degree days 77 21  
Year to date cooling degree days 170 53  
Since 1 June cooling degree days 169 50  
Growing Degree Days 24 (Base 50)    
Moisture  
Dew Point 35 °F    
Average Humidity 24    
Maximum Humidity 33    
Minimum Humidity 15    
Precipitation  
Precipitation 0.00 in 0.02 in 0.32 in (2001)
Month to date precipitation 0.07 0.09  
Year to date precipitation 3.20 5.17  
Sea Level Pressure  
Sea Level Pressure 29.76 in    
Wind  
Wind Speed 12 mph (SSE)    
Max Wind Speed 32 mph    
Max Gust Speed 41 mph    
T = Trace of Precipitation, MM = Missing Value Source: NWS Daily Summary

Daily Weather History Graph

Daily Weather History Graph

Search for Another Location

Airport or City:

Trip Planner

Search our weather history database for the weather conditions in past years. The results will help you decide how hot, cold, wet, or windy it might be!

Date:

Astronomy

Jul. 07, 2013 Rise Set
Actual Time 5:23 AM PDT 8:13 PM PDT
Civil Twilight 4:51 AM PDT 8:45 PM PDT
Nautical Twilight 4:11 AM PDT 9:25 PM PDT
Astronomical Twilight 3:25 AM PDT 10:11 PM PDT
Moon 5:03 AM PDT (7/7) 7:40 PM PDT (7/7)
Length of Visible Light 15h 53m
Length of Day
14h 49m
Waning Crescent, 0% of the Moon is Illuminated
Jul 7
Waning Crescent
Jul 8
New
Jul 15
First Quarter
Jul 22
Full
Jul 29
Last Quarter

Hourly Weather History & Observations

Time (PDT) Temp. Dew Point Humidity Pressure Visibility Wind Dir Wind Speed Gust Speed Precip Events Conditions
12:53 AM 75.0 °F 32.0 °F 21% 29.69 in - South 9.2 mph - N/A   Unknown
1:53 AM 71.1 °F 33.1 °F 25% 29.72 in - SW 6.9 mph - N/A   Unknown
2:53 AM 73.9 °F 23.0 °F 15% 29.70 in - SSW 12.7 mph - N/A   Unknown
3:53 AM 64.9 °F 28.0 °F 25% 29.73 in - SSW 8.1 mph - N/A   Unknown
4:53 AM 60.1 °F 30.0 °F 32% 29.75 in - South 10.4 mph - N/A   Unknown
5:53 AM 64.9 °F 28.0 °F 25% 29.75 in - South 3.5 mph - N/A   Unknown
6:53 AM 68.0 °F 36.0 °F 31% 29.77 in - Calm Calm - N/A   Unknown
7:53 AM 78.1 °F 26.1 °F 15% 29.75 in - Calm Calm - N/A   Unknown
8:53 AM 81.0 °F 30.0 °F 16% 29.75 in - SSE 3.5 mph - N/A   Unknown
9:53 AM 84.0 °F 33.1 °F 16% 29.75 in - South 17.3 mph 27.6 mph N/A   Unknown
10:53 AM 84.9 °F 33.1 °F 16% 29.75 in - South 13.8 mph 23.0 mph N/A   Unknown
11:53 AM 87.1 °F 35.1 °F 16% 29.74 in - South 18.4 mph 25.3 mph N/A   Unknown
12:53 PM 77.0 °F 42.1 °F 29% 29.78 in - SE 18.4 mph 35.7 mph N/A   Unknown
1:53 PM 78.1 °F 42.1 °F 28% 29.77 in - South 25.3 mph 33.4 mph N/A   Unknown
2:53 PM 82.0 °F 44.1 °F 26% 29.76 in - SSE 25.3 mph 31.1 mph N/A   Unknown
3:53 PM 79.0 °F 43.0 °F 28% 29.79 in - South 24.2 mph - N/A   Unknown
4:53 PM 81.0 °F 34.0 °F 18% 29.77 in - South 12.7 mph - N/A   Unknown
5:53 PM 82.9 °F 39.0 °F 21% 29.75 in - SSE 16.1 mph - N/A   Unknown
6:53 PM 79.0 °F 41.0 °F 26% 29.75 in - SSE 17.3 mph 27.6 mph N/A   Unknown
7:53 PM 73.9 °F 39.9 °F 29% 29.77 in - SE 3.5 mph - N/A   Unknown
8:53 PM 72.0 °F 39.9 °F 31% 29.77 in - ESE 6.9 mph - N/A   Unknown
9:53 PM 72.0 °F 39.0 °F 30% 29.78 in - ENE 8.1 mph - N/A   Unknown
10:53 PM 69.1 °F 39.9 °F 35% 29.80 in - ESE 11.5 mph - N/A   Unknown
11:53 PM 70.0 °F 39.9 °F 33% 29.80 in - SSE 9.2 mph - N/A   Unknown